Check out our new BloomSky Weather System.

Active alerts

Houston, TX
  Details for Houston, TX Dense Fog Advisory


Thunder radar  blitzortung!


Rain radar more information rain snow radar


Visit our other weather sites:

Template documentation
and downloads

And another site



Weather Underground History page Text

Daily Summary for May 26, 2017 Units:  English    Metric   Both
« Previous Day
Next Day »
Daily Weekly Monthly Yearly Custom
  High: Low: Average:
Temperature: 90.3 °F 74.1 °F 81.5 °F
Dew Point: 77.4 °F 68.9 °F 74.5 °F
Humidity: 91 % 64 % 80 %
Wind Speed: 13.0 mph 0.0 mph 5.3 mph
Wind Gust: 19.0 mph - -
Wind:- - SSE
Pressure: 29.89 in 29.78 in -
Precipitation: 0.00 in    
Historical Graphs
 
 
Tabular Data for May 26, 2017
Time Temperature Dew Point Pressure Wind Wind Speed Wind Gust Humidity Rainfall Rate (Hourly)
00:02 75.2 °F 68.9 °F 29.79 in SSW 8.0 mph 12.0 mph 81 % 0.00 in
00:07 75.0 °F 69.1 °F 29.79 in South 4.0 mph 13.0 mph 82 % 0.00 in
00:12 75.0 °F 69.1 °F 29.79 in SSE 7.0 mph 13.0 mph 82 % 0.00 in
00:17 75.0 °F 69.1 °F 29.78 in SE 5.0 mph 13.0 mph 82 % 0.00 in
00:22 74.8 °F 68.9 °F 29.78 in ESE 4.0 mph 12.0 mph 82 % 0.00 in
00:27 74.8 °F 69.3 °F 29.78 in SE 10.0 mph 11.0 mph 83 % 0.00 in
00:32 74.8 °F 69.3 °F 29.78 in SE 6.0 mph 13.0 mph 83 % 0.00 in
00:37 74.8 °F 69.3 °F 29.78 in SE 5.0 mph 13.0 mph 83 % 0.00 in
00:43 74.7 °F 69.1 °F 29.78 in South 3.0 mph 13.0 mph 83 % 0.00 in
00:48 74.7 °F 69.1 °F 29.78 in East 4.0 mph 12.0 mph 83 % 0.00 in
00:53 74.5 °F 69.3 °F 29.78 in SSE 3.0 mph 12.0 mph 84 % 0.00 in
00:58 74.5 °F 69.3 °F 29.78 in SE 4.0 mph 8.0 mph 84 % 0.00 in
01:03 74.5 °F 69.3 °F 29.78 in SE 4.0 mph 8.0 mph 84 % 0.00 in
01:08 74.5 °F 69.6 °F 29.78 in SSE 6.0 mph 8.0 mph 85 % 0.00 in
01:13 74.5 °F 69.6 °F 29.78 in SSW 4.0 mph 12.0 mph 85 % 0.00 in
01:18 74.5 °F 69.6 °F 29.78 in SE 5.0 mph 12.0 mph 85 % 0.00 in
01:23 74.3 °F 69.4 °F 29.78 in SW 5.0 mph 12.0 mph 85 % 0.00 in
01:28 74.1 °F 69.3 °F 29.78 in SE 7.0 mph 11.0 mph 85 % 0.00 in
01:34 74.1 °F 69.3 °F 29.78 in SE 4.0 mph 10.0 mph 85 % 0.00 in
01:39 74.1 °F 69.3 °F 29.78 in SSW 3.0 mph 9.0 mph 85 % 0.00 in
01:44 74.1 °F 69.6 °F 29.78 in SSE 3.0 mph 10.0 mph 86 % 0.00 in
01:49 74.1 °F 69.6 °F 29.78 in SE 5.0 mph 10.0 mph 86 % 0.00 in
01:54 74.1 °F 69.6 °F 29.78 in SSW 5.0 mph 10.0 mph 86 % 0.00 in
01:59 74.1 °F 69.6 °F 29.78 in South 4.0 mph 10.0 mph 86 % 0.00 in
02:04 74.1 °F 69.6 °F 29.78 in South 4.0 mph 10.0 mph 86 % 0.00 in
02:09 74.1 °F 69.6 °F 29.78 in SSW 4.0 mph 9.0 mph 86 % 0.00 in
02:14 74.3 °F 69.8 °F 29.78 in SE 4.0 mph 12.0 mph 86 % 0.00 in
02:19 74.3 °F 69.8 °F 29.78 in South 2.0 mph 12.0 mph 86 % 0.00 in
02:24 74.3 °F 69.8 °F 29.78 in SE 5.0 mph 12.0 mph 86 % 0.00 in
02:29 74.1 °F 69.6 °F 29.78 in SSE 7.0 mph 12.0 mph 86 % 0.00 in
02:34 74.3 °F 70.2 °F 29.78 in SSW 4.0 mph 12.0 mph 87 % 0.00 in
02:39 74.3 °F 70.2 °F 29.78 in SSE 5.0 mph 12.0 mph 87 % 0.00 in
02:44 74.3 °F 70.2 °F 29.78 in SE 3.0 mph 11.0 mph 87 % 0.00 in
02:49 74.3 °F 70.2 °F 29.78 in SW 8.0 mph 11.0 mph 87 % 0.00 in
02:54 74.3 °F 70.2 °F 29.78 in South 5.0 mph 11.0 mph 87 % 0.00 in
02:59 74.5 °F 70.7 °F 29.78 in SSE 2.0 mph 11.0 mph 88 % 0.00 in
03:04 74.5 °F 70.7 °F 29.79 in South 7.0 mph 10.0 mph 88 % 0.00 in
03:09 74.7 °F 70.9 °F 29.79 in SSE 5.0 mph 12.0 mph 88 % 0.00 in
03:14 74.7 °F 70.9 °F 29.79 in SSE 3.0 mph 12.0 mph 88 % 0.00 in
03:19 74.7 °F 70.9 °F 29.79 in SW 5.0 mph 12.0 mph 88 % 0.00 in
03:24 74.7 °F 70.9 °F 29.79 in SSE 4.0 mph 9.0 mph 88 % 0.00 in
03:29 74.7 °F 70.9 °F 29.79 in SSE 7.0 mph 10.0 mph 88 % 0.00 in
03:34 74.7 °F 70.9 °F 29.79 in SSE 4.0 mph 10.0 mph 88 % 0.00 in
03:39 74.7 °F 70.9 °F 29.80 in SSE 1.0 mph 13.0 mph 88 % 0.00 in
03:44 74.7 °F 70.9 °F 29.80 in South 5.0 mph 13.0 mph 88 % 0.00 in
03:49 74.8 °F 71.4 °F 29.80 in SW 6.0 mph 13.0 mph 89 % 0.00 in
03:54 74.8 °F 71.4 °F 29.80 in SSE 6.0 mph 9.0 mph 89 % 0.00 in
03:59 74.8 °F 71.4 °F 29.81 in ESE 3.0 mph 9.0 mph 89 % 0.00 in
04:04 74.8 °F 71.4 °F 29.81 in South 5.0 mph 10.0 mph 89 % 0.00 in
04:10 74.8 °F 71.4 °F 29.80 in SSE 3.0 mph 10.0 mph 89 % 0.00 in
04:14 75.0 °F 71.6 °F 29.81 in SSW 3.0 mph 10.0 mph 89 % 0.00 in
04:20 75.0 °F 71.6 °F 29.81 in SSW 3.0 mph 8.0 mph 89 % 0.00 in
04:25 75.0 °F 71.6 °F 29.81 in SE 5.0 mph 9.0 mph 89 % 0.00 in
04:30 75.2 °F 71.8 °F 29.80 in SE 4.0 mph 10.0 mph 89 % 0.00 in
04:35 75.4 °F 72.0 °F 29.80 in SE 4.0 mph 10.0 mph 89 % 0.00 in
04:40 75.4 °F 72.0 °F 29.81 in SSE 2.0 mph 9.0 mph 89 % 0.00 in
04:45 75.4 °F 72.0 °F 29.81 in SW 2.0 mph 7.0 mph 89 % 0.00 in
04:50 75.4 °F 72.0 °F 29.81 in SSE 3.0 mph 7.0 mph 89 % 0.00 in
04:55 75.4 °F 72.0 °F 29.81 in South 4.0 mph 9.0 mph 89 % 0.00 in
05:00 75.4 °F 72.0 °F 29.81 in SSE 2.0 mph 9.0 mph 89 % 0.00 in
05:05 75.2 °F 71.8 °F 29.81 in SE 4.0 mph 9.0 mph 89 % 0.00 in
05:10 75.2 °F 71.8 °F 29.81 in South 2.0 mph 7.0 mph 89 % 0.00 in
05:15 75.2 °F 71.8 °F 29.81 in SSE 3.0 mph 8.0 mph 89 % 0.00 in
05:20 75.2 °F 72.1 °F 29.82 in South 2.0 mph 8.0 mph 90 % 0.00 in
05:25 75.0 °F 72.0 °F 29.82 in SE 3.0 mph 8.0 mph 90 % 0.00 in
05:30 75.2 °F 72.1 °F 29.82 in SSE 6.0 mph 7.0 mph 90 % 0.00 in
05:35 75.2 °F 72.1 °F 29.82 in SSE 2.0 mph 7.0 mph 90 % 0.00 in
05:40 75.4 °F 72.3 °F 29.82 in SSE 2.0 mph 7.0 mph 90 % 0.00 in
05:45 75.4 °F 72.3 °F 29.82 in ESE 2.0 mph 9.0 mph 90 % 0.00 in
05:50 75.4 °F 72.3 °F 29.82 in SSE 4.0 mph 9.0 mph 90 % 0.00 in
05:55 75.4 °F 72.3 °F 29.82 in SE 2.0 mph 9.0 mph 90 % 0.00 in
06:00 75.4 °F 72.3 °F 29.82 in SE 2.0 mph 9.0 mph 90 % 0.00 in
06:05 75.4 °F 72.3 °F 29.83 in SSE 2.0 mph 6.0 mph 90 % 0.00 in
06:10 75.6 °F 72.5 °F 29.83 in SSW 5.0 mph 6.0 mph 90 % 0.00 in
06:15 75.6 °F 72.5 °F 29.83 in South 3.0 mph 6.0 mph 90 % 0.00 in
06:21 75.6 °F 72.5 °F 29.83 in SE 1.0 mph 5.0 mph 90 % 0.00 in
06:26 75.6 °F 72.5 °F 29.83 in South 5.0 mph 5.0 mph 90 % 0.00 in
06:31 75.6 °F 72.7 °F 29.84 in Calm   5.0 mph 91 % 0.00 in
06:36 75.6 °F 72.7 °F 29.84 in SSE 2.0 mph 5.0 mph 91 % 0.00 in
06:41 75.7 °F 72.9 °F 29.84 in SSE 1.0 mph 6.0 mph 91 % 0.00 in
06:46 75.7 °F 72.9 °F 29.84 in SW 4.0 mph 6.0 mph 91 % 0.00 in
06:51 75.7 °F 72.9 °F 29.84 in South 3.0 mph 6.0 mph 91 % 0.00 in
06:56 75.7 °F 72.9 °F 29.84 in SE 2.0 mph 6.0 mph 91 % 0.00 in
07:01 75.9 °F 73.0 °F 29.84 in SE 2.0 mph 7.0 mph 91 % 0.00 in
07:06 75.9 °F 73.0 °F 29.84 in South 6.0 mph 7.0 mph 91 % 0.00 in
07:11 75.9 °F 73.0 °F 29.84 in South 3.0 mph 7.0 mph 91 % 0.00 in
07:16 75.9 °F 73.0 °F 29.84 in South 2.0 mph 8.0 mph 91 % 0.00 in
07:21 76.1 °F 73.2 °F 29.84 in SSE 4.0 mph 8.0 mph 91 % 0.00 in
07:26 76.3 °F 73.4 °F 29.85 in ESE 2.0 mph 8.0 mph 91 % 0.00 in
07:31 76.3 °F 73.4 °F 29.85 in SSE 3.0 mph 6.0 mph 91 % 0.00 in
07:36 76.3 °F 73.4 °F 29.85 in SE 3.0 mph 6.0 mph 91 % 0.00 in
07:41 76.3 °F 73.4 °F 29.85 in South 3.0 mph 6.0 mph 91 % 0.00 in
07:46 76.5 °F 73.6 °F 29.86 in SSE 2.0 mph 6.0 mph 91 % 0.00 in
07:51 76.6 °F 73.4 °F 29.86 in SSE 2.0 mph 6.0 mph 90 % 0.00 in
07:56 76.8 °F 73.6 °F 29.86 in SSE 3.0 mph 8.0 mph 90 % 0.00 in
08:01 76.8 °F 73.6 °F 29.86 in SSE 2.0 mph 8.0 mph 90 % 0.00 in
08:06 77.0 °F 73.8 °F 29.86 in SSE 2.0 mph 8.0 mph 90 % 0.00 in
08:11 77.2 °F 73.8 °F 29.86 in SSE 3.0 mph 6.0 mph 89 % 0.00 in
08:16 77.4 °F 73.9 °F 29.87 in South 3.0 mph 7.0 mph 89 % 0.00 in
08:21 77.4 °F 73.9 °F 29.87 in SSE 4.0 mph 7.0 mph 89 % 0.00 in
08:26 77.5 °F 74.1 °F 29.87 in SSE 6.0 mph 8.0 mph 89 % 0.00 in
08:31 77.7 °F 74.3 °F 29.87 in ESE 3.0 mph 10.0 mph 89 % 0.00 in
08:36 77.7 °F 73.9 °F 29.87 in ESE 4.0 mph 10.0 mph 88 % 0.00 in
08:41 78.1 °F 74.3 °F 29.87 in ESE 3.0 mph 10.0 mph 88 % 0.00 in
08:46 78.1 °F 74.3 °F 29.87 in SSE 4.0 mph 8.0 mph 88 % 0.00 in
08:51 78.3 °F 74.5 °F 29.88 in SE 7.0 mph 7.0 mph 88 % 0.00 in
08:56 78.4 °F 74.3 °F 29.87 in SE 2.0 mph 9.0 mph 87 % 0.00 in
09:01 78.8 °F 74.7 °F 29.88 in SSW 4.0 mph 9.0 mph 87 % 0.00 in
09:06 79.0 °F 74.8 °F 29.88 in South 9.0 mph 9.0 mph 87 % 0.00 in
09:11 79.0 °F 74.5 °F 29.88 in SE 5.0 mph 12.0 mph 86 % 0.00 in
09:16 79.0 °F 74.5 °F 29.87 in South 3.0 mph 12.0 mph 86 % 0.00 in
09:21 79.2 °F 74.7 °F 29.88 in South 5.0 mph 12.0 mph 86 % 0.00 in
09:26 79.2 °F 74.7 °F 29.88 in South 3.0 mph 12.0 mph 86 % 0.00 in
09:31 79.3 °F 74.8 °F 29.88 in SSW 5.0 mph 12.0 mph 86 % 0.00 in
09:36 79.5 °F 75.0 °F 29.88 in SSE 7.0 mph 12.0 mph 86 % 0.00 in
09:42 79.9 °F 75.0 °F 29.88 in ESE 8.0 mph 12.0 mph 85 % 0.00 in
09:47 80.1 °F 75.2 °F 29.89 in SSW 6.0 mph 12.0 mph 85 % 0.00 in
09:52 80.1 °F 74.8 °F 29.88 in SSE 5.0 mph 12.0 mph 84 % 0.00 in
09:57 80.1 °F 75.2 °F 29.88 in South 6.0 mph 11.0 mph 85 % 0.00 in
10:02 80.4 °F 75.2 °F 29.88 in SE 3.0 mph 10.0 mph 84 % 0.00 in
10:07 80.8 °F 75.6 °F 29.88 in South 5.0 mph 11.0 mph 84 % 0.00 in
10:12 80.8 °F 75.2 °F 29.88 in South 4.0 mph 11.0 mph 83 % 0.00 in
10:17 81.0 °F 75.4 °F 29.89 in SSE 8.0 mph 11.0 mph 83 % 0.00 in
10:22 81.0 °F 75.0 °F 29.89 in SSE 4.0 mph 11.0 mph 82 % 0.00 in
10:27 81.0 °F 75.0 °F 29.89 in SSW 4.0 mph 11.0 mph 82 % 0.00 in
10:32 81.1 °F 75.2 °F 29.89 in SSW 10.0 mph 11.0 mph 82 % 0.00 in
10:37 81.5 °F 75.4 °F 29.89 in SSW 5.0 mph 10.0 mph 82 % 0.00 in
10:42 81.7 °F 74.8 °F 29.89 in SSE 5.0 mph 10.0 mph 80 % 0.00 in
10:47 82.0 °F 75.6 °F 29.89 in SE 3.0 mph 11.0 mph 81 % 0.00 in
10:52 82.6 °F 75.4 °F 29.89 in SSW 4.0 mph 11.0 mph 79 % 0.00 in
10:57 82.9 °F 75.4 °F 29.88 in SSW 5.0 mph 11.0 mph 78 % 0.00 in
11:02 83.1 °F 75.6 °F 29.89 in South 6.0 mph 11.0 mph 78 % 0.00 in
11:04 83.5 °F 75.9 °F 29.88 in SE 9.0 mph 11.0 mph 78 % 0.00 in
11:09 83.8 °F 75.4 °F 29.89 in SE 7.0 mph 13.0 mph 76 % 0.00 in
11:14 84.0 °F 75.6 °F 29.89 in SSE 4.0 mph 13.0 mph 76 % 0.00 in
11:19 84.4 °F 75.6 °F 29.89 in South 4.0 mph 13.0 mph 75 % 0.00 in
11:24 84.6 °F 75.7 °F 29.88 in SSE 3.0 mph 12.0 mph 75 % 0.00 in
11:29 84.4 °F 75.2 °F 29.89 in SSE 3.0 mph 12.0 mph 74 % 0.00 in
11:34 84.6 °F 75.7 °F 29.89 in SSW 8.0 mph 13.0 mph 75 % 0.00 in
11:39 84.6 °F 75.7 °F 29.89 in SSW 6.0 mph 13.0 mph 75 % 0.00 in
11:44 84.7 °F 75.6 °F 29.89 in SSE 2.0 mph 13.0 mph 74 % 0.00 in
11:49 85.5 °F 76.3 °F 29.88 in South 3.0 mph 11.0 mph 74 % 0.00 in
11:54 85.6 °F 75.6 °F 29.89 in SSW 7.0 mph 11.0 mph 72 % 0.00 in
11:59 85.6 °F 75.6 °F 29.88 in SSE 4.0 mph 10.0 mph 72 % 0.00 in
12:00 85.8 °F 75.7 °F 29.89 in SSW 5.0 mph 10.0 mph 72 % 0.00 in
12:05 86.4 °F 76.3 °F 29.89 in SW 5.0 mph 10.0 mph 72 % 0.00 in
12:10 87.4 °F 75.9 °F 29.88 in ESE 8.0 mph 11.0 mph 69 % 0.00 in
12:15 88.0 °F 76.1 °F 29.88 in South 5.0 mph 11.0 mph 68 % 0.00 in
12:20 88.3 °F 75.9 °F 29.88 in SSE 5.0 mph 11.0 mph 67 % 0.00 in
12:25 88.9 °F 76.1 °F 29.88 in SE 6.0 mph 11.0 mph 66 % 0.00 in
12:30 88.2 °F 75.7 °F 29.88 in SE 6.0 mph 13.0 mph 67 % 0.00 in
12:33 88.0 °F 75.6 °F 29.88 in SW 4.0 mph 13.0 mph 67 % 0.00 in
12:38 88.2 °F 76.3 °F 29.88 in South 9.0 mph 13.0 mph 68 % 0.00 in
12:43 88.2 °F 76.3 °F 29.88 in SSE 6.0 mph 13.0 mph 68 % 0.00 in
12:48 88.7 °F 76.8 °F 29.88 in SSW 7.0 mph 13.0 mph 68 % 0.00 in
12:53 88.5 °F 75.7 °F 29.88 in SSE 5.0 mph 13.0 mph 66 % 0.00 in
12:58 88.3 °F 75.6 °F 29.88 in South 6.0 mph 12.0 mph 66 % 0.00 in
13:03 88.5 °F 76.1 °F 29.88 in SSW 5.0 mph 14.0 mph 67 % 0.00 in
13:08 88.7 °F 76.3 °F 29.88 in SSW 10.0 mph 14.0 mph 67 % 0.00 in
13:13 88.5 °F 75.2 °F 29.87 in South 5.0 mph 14.0 mph 65 % 0.00 in
13:18 89.1 °F 76.3 °F 29.88 in South 10.0 mph 17.0 mph 66 % 0.00 in
13:23 89.1 °F 76.3 °F 29.87 in SE 3.0 mph 17.0 mph 66 % 0.00 in
13:28 89.2 °F 76.5 °F 29.87 in SE 10.0 mph 17.0 mph 66 % 0.00 in
13:34 89.1 °F 76.6 °F 29.87 in South 6.0 mph 13.0 mph 67 % 0.00 in
13:39 89.6 °F 76.3 °F 29.86 in SE 11.0 mph 13.0 mph 65 % 0.00 in
13:44 89.8 °F 76.8 °F 29.86 in SE 3.0 mph 17.0 mph 66 % 0.00 in
13:49 89.8 °F 76.8 °F 29.86 in South 8.0 mph 17.0 mph 66 % 0.00 in
13:54 89.4 °F 76.1 °F 29.86 in SSE 6.0 mph 17.0 mph 65 % 0.00 in
13:59 89.4 °F 76.6 °F 29.86 in SSW 11.0 mph 15.0 mph 66 % 0.00 in
14:04 90.3 °F 77.0 °F 29.85 in SSE 7.0 mph 15.0 mph 65 % 0.00 in
14:09 90.3 °F 77.0 °F 29.85 in SSE 9.0 mph 14.0 mph 65 % 0.00 in
14:14 90.0 °F 77.0 °F 29.85 in SE 12.0 mph 19.0 mph 66 % 0.00 in
14:19 90.0 °F 76.1 °F 29.85 in South 8.0 mph 19.0 mph 64 % 0.00 in
14:24 90.0 °F 76.6 °F 29.85 in SSE 6.0 mph 19.0 mph 65 % 0.00 in
14:34 90.3 °F 76.5 °F 29.85 in SE 8.0 mph 15.0 mph 64 % 0.00 in
14:39 90.1 °F 76.8 °F 29.85 in SSW 6.0 mph 14.0 mph 65 % 0.00 in
14:44 89.8 °F 76.8 °F 29.85 in South 8.0 mph 14.0 mph 66 % 0.00 in
14:49 90.0 °F 76.6 °F 29.85 in South 11.0 mph 13.0 mph 65 % 0.00 in
14:54 89.8 °F 76.5 °F 29.85 in South 5.0 mph 13.0 mph 65 % 0.00 in
14:59 90.1 °F 76.3 °F 29.85 in SE 12.0 mph 15.0 mph 64 % 0.00 in
15:04 89.8 °F 75.9 °F 29.85 in SSE 8.0 mph 15.0 mph 64 % 0.00 in
15:09 89.4 °F 76.6 °F 29.85 in SE 7.0 mph 15.0 mph 66 % 0.00 in
15:14 89.4 °F 76.1 °F 29.85 in South 13.0 mph 14.0 mph 65 % 0.00 in
15:19 89.2 °F 76.5 °F 29.85 in SE 4.0 mph 17.0 mph 66 % 0.00 in
15:22 89.6 °F 76.6 °F 29.85 in SSE 8.0 mph 17.0 mph 66 % 0.00 in
15:27 90.0 °F 77.0 °F 29.85 in SSE 10.0 mph 17.0 mph 66 % 0.00 in
15:32 89.8 °F 76.5 °F 29.85 in South 8.0 mph 16.0 mph 65 % 0.00 in
15:37 89.2 °F 76.5 °F 29.85 in SSW 10.0 mph 16.0 mph 66 % 0.00 in
15:42 89.2 °F 75.9 °F 29.84 in SSW 11.0 mph 13.0 mph 65 % 0.00 in
15:47 89.2 °F 76.5 °F 29.84 in SSW 3.0 mph 16.0 mph 66 % 0.00 in
15:52 90.1 °F 76.3 °F 29.84 in SSW 8.0 mph 16.0 mph 64 % 0.00 in
15:57 90.1 °F 76.3 °F 29.84 in SE 8.0 mph 16.0 mph 64 % 0.00 in
16:02 89.4 °F 76.6 °F 29.84 in SE 8.0 mph 16.0 mph 66 % 0.00 in
16:07 89.4 °F 76.6 °F 29.84 in South 6.0 mph 16.0 mph 66 % 0.00 in
16:12 89.2 °F 76.5 °F 29.84 in SW 11.0 mph 16.0 mph 66 % 0.00 in
16:17 89.1 °F 76.6 °F 29.84 in South 7.0 mph 15.0 mph 67 % 0.00 in
16:22 89.4 °F 76.6 °F 29.83 in South 5.0 mph 15.0 mph 66 % 0.00 in
16:27 89.2 °F 76.5 °F 29.83 in SSE 9.0 mph 14.0 mph 66 % 0.00 in
16:32 88.9 °F 77.0 °F 29.84 in SSE 6.0 mph 14.0 mph 68 % 0.00 in
16:37 88.5 °F 76.6 °F 29.83 in South 8.0 mph 14.0 mph 68 % 0.00 in
16:42 88.5 °F 76.6 °F 29.83 in South 6.0 mph 12.0 mph 68 % 0.00 in
16:47 89.1 °F 76.6 °F 29.83 in South 11.0 mph 11.0 mph 67 % 0.00 in
16:52 88.5 °F 76.1 °F 29.83 in SSE 6.0 mph 15.0 mph 67 % 0.00 in
16:57 88.3 °F 76.5 °F 29.83 in South 6.0 mph 15.0 mph 68 % 0.00 in
17:02 88.2 °F 76.3 °F 29.83 in SSE 4.0 mph 15.0 mph 68 % 0.00 in
17:07 88.0 °F 76.5 °F 29.83 in SW 9.0 mph 15.0 mph 69 % 0.00 in
17:13 87.6 °F 76.1 °F 29.83 in South 10.0 mph 15.0 mph 69 % 0.00 in
17:17 88.0 °F 77.0 °F 29.83 in South 7.0 mph 14.0 mph 70 % 0.00 in
17:22 88.3 °F 76.8 °F 29.83 in SSW 7.0 mph 14.0 mph 69 % 0.00 in
17:28 88.2 °F 76.6 °F 29.83 in South 5.0 mph 14.0 mph 69 % 0.00 in
17:33 88.2 °F 77.2 °F 29.83 in SW 7.0 mph 13.0 mph 70 % 0.00 in
17:38 87.6 °F 77.0 °F 29.83 in SE 10.0 mph 13.0 mph 71 % 0.00 in
17:43 87.3 °F 77.2 °F 29.83 in SW 4.0 mph 15.0 mph 72 % 0.00 in
17:48 87.1 °F 77.0 °F 29.84 in South 4.0 mph 15.0 mph 72 % 0.00 in
17:53 87.1 °F 77.0 °F 29.84 in South 4.0 mph 15.0 mph 72 % 0.00 in
17:58 87.3 °F 77.2 °F 29.84 in SE 6.0 mph 12.0 mph 72 % 0.00 in
18:03 87.1 °F 77.0 °F 29.84 in SSE 5.0 mph 11.0 mph 72 % 0.00 in
18:08 86.7 °F 77.0 °F 29.83 in SE 6.0 mph 12.0 mph 73 % 0.00 in
18:13 87.1 °F 77.4 °F 29.83 in SSE 7.0 mph 12.0 mph 73 % 0.00 in
18:18 87.1 °F 77.0 °F 29.83 in SSE 7.0 mph 12.0 mph 72 % 0.00 in
18:23 86.7 °F 77.0 °F 29.83 in SE 8.0 mph 12.0 mph 73 % 0.00 in
18:28 86.5 °F 76.8 °F 29.83 in SSE 5.0 mph 12.0 mph 73 % 0.00 in
18:33 86.4 °F 77.0 °F 29.83 in ESE 6.0 mph 12.0 mph 74 % 0.00 in
18:38 86.2 °F 77.0 °F 29.84 in SSW 6.0 mph 11.0 mph 74 % 0.00 in
18:43 85.8 °F 77.0 °F 29.83 in East 5.0 mph 12.0 mph 75 % 0.00 in
18:48 85.8 °F 77.0 °F 29.83 in SE 8.0 mph 12.0 mph 75 % 0.00 in
18:53 85.6 °F 76.8 °F 29.83 in SSE 5.0 mph 12.0 mph 75 % 0.00 in
18:58 85.5 °F 76.6 °F 29.84 in SSE 5.0 mph 12.0 mph 75 % 0.00 in
19:03 85.5 °F 76.6 °F 29.84 in SSE 4.0 mph 13.0 mph 75 % 0.00 in
19:08 85.3 °F 76.8 °F 29.83 in South 6.0 mph 13.0 mph 76 % 0.00 in
19:13 85.1 °F 76.6 °F 29.84 in SSE 5.0 mph 13.0 mph 76 % 0.00 in
19:18 84.9 °F 76.8 °F 29.83 in SE 5.0 mph 12.0 mph 77 % 0.00 in
19:19 84.9 °F 76.8 °F 29.83 in SSE 4.0 mph 12.0 mph 77 % 0.00 in
19:24 84.9 °F 76.8 °F 29.83 in South 8.0 mph 12.0 mph 77 % 0.00 in
19:29 84.7 °F 76.6 °F 29.84 in SE 6.0 mph 12.0 mph 77 % 0.00 in
19:33 84.7 °F 77.2 °F 29.84 in SSE 4.0 mph 11.0 mph 78 % 0.00 in
19:38 84.6 °F 77.0 °F 29.85 in ESE 7.0 mph 11.0 mph 78 % 0.00 in
19:43 84.6 °F 77.0 °F 29.85 in SE 5.0 mph 11.0 mph 78 % 0.00 in
19:48 84.4 °F 77.2 °F 29.85 in SSE 2.0 mph 11.0 mph 79 % 0.00 in
19:54 84.0 °F 76.8 °F 29.85 in SSE 8.0 mph 11.0 mph 79 % 0.00 in
19:59 83.8 °F 76.6 °F 29.85 in SSE 9.0 mph 13.0 mph 79 % 0.00 in
20:04 83.8 °F 77.0 °F 29.84 in SE 2.0 mph 13.0 mph 80 % 0.00 in
20:09 83.7 °F 76.8 °F 29.85 in ESE 10.0 mph 13.0 mph 80 % 0.00 in
20:14 83.5 °F 77.0 °F 29.85 in SE 5.0 mph 13.0 mph 81 % 0.00 in
20:19 83.3 °F 76.8 °F 29.86 in ESE 7.0 mph 13.0 mph 81 % 0.00 in
20:24 83.1 °F 77.0 °F 29.86 in SE 5.0 mph 13.0 mph 82 % 0.00 in
20:29 82.9 °F 76.8 °F 29.86 in SE 5.0 mph 11.0 mph 82 % 0.00 in
20:34 82.8 °F 76.6 °F 29.86 in SE 8.0 mph 11.0 mph 82 % 0.00 in
20:39 82.8 °F 76.6 °F 29.86 in SSE 6.0 mph 11.0 mph 82 % 0.00 in
20:44 82.8 °F 77.0 °F 29.86 in SE 4.0 mph 11.0 mph 83 % 0.00 in
20:54 82.6 °F 76.8 °F 29.86 in SSE 5.0 mph 12.0 mph 83 % 0.00 in
20:59 82.4 °F 76.6 °F 29.85 in SE 5.0 mph 12.0 mph 83 % 0.00 in
21:04 82.2 °F 76.5 °F 29.85 in SE 6.0 mph 12.0 mph 83 % 0.00 in
21:09 82.2 °F 76.8 °F 29.86 in South 4.0 mph 13.0 mph 84 % 0.00 in
21:14 82.0 °F 76.6 °F 29.86 in SE 6.0 mph 13.0 mph 84 % 0.00 in
21:19 81.9 °F 76.5 °F 29.86 in SE 4.0 mph 13.0 mph 84 % 0.00 in
21:24 81.9 °F 76.8 °F 29.86 in ESE 9.0 mph 11.0 mph 85 % 0.00 in
21:29 81.9 °F 76.8 °F 29.86 in ESE 5.0 mph 11.0 mph 85 % 0.00 in
21:34 81.7 °F 76.6 °F 29.86 in East 6.0 mph 11.0 mph 85 % 0.00 in
21:39 81.7 °F 76.6 °F 29.86 in SSE 5.0 mph 11.0 mph 85 % 0.00 in
21:44 81.5 °F 76.5 °F 29.86 in SSE 5.0 mph 12.0 mph 85 % 0.00 in
21:49 81.5 °F 76.5 °F 29.86 in SE 5.0 mph 13.0 mph 85 % 0.00 in
21:54 81.3 °F 76.6 °F 29.86 in SSE 6.0 mph 13.0 mph 86 % 0.00 in
21:59 81.3 °F 76.6 °F 29.87 in South 5.0 mph 13.0 mph 86 % 0.00 in
22:04 81.1 °F 76.5 °F 29.87 in SSE 7.0 mph 12.0 mph 86 % 0.00 in
22:09 81.1 °F 76.5 °F 29.87 in SE 5.0 mph 12.0 mph 86 % 0.00 in
22:14 81.1 °F 76.5 °F 29.87 in East 8.0 mph 11.0 mph 86 % 0.00 in
22:19 81.1 °F 76.5 °F 29.88 in SSE 7.0 mph 11.0 mph 86 % 0.00 in
22:24 81.3 °F 76.6 °F 29.88 in SE 3.0 mph 11.0 mph 86 % 0.00 in
22:29 81.1 °F 76.5 °F 29.88 in South 3.0 mph 11.0 mph 86 % 0.00 in
22:34 81.1 °F 76.5 °F 29.88 in SSE 5.0 mph 11.0 mph 86 % 0.00 in
22:39 81.1 °F 76.5 °F 29.88 in South 3.0 mph 14.0 mph 86 % 0.00 in
22:44 81.1 °F 76.8 °F 29.88 in SE 4.0 mph 14.0 mph 87 % 0.00 in
22:49 81.1 °F 76.8 °F 29.88 in SSW 3.0 mph 14.0 mph 87 % 0.00 in
22:54 81.1 °F 76.8 °F 29.88 in South 5.0 mph 11.0 mph 87 % 0.00 in
22:59 81.1 °F 76.8 °F 29.88 in SSE 3.0 mph 12.0 mph 87 % 0.00 in
23:04 81.0 °F 76.6 °F 29.88 in SSE 3.0 mph 12.0 mph 87 % 0.00 in
23:09 81.0 °F 76.6 °F 29.88 in East 7.0 mph 12.0 mph 87 % 0.00 in
23:14 81.1 °F 76.8 °F 29.88 in SE 8.0 mph 10.0 mph 87 % 0.00 in
23:19 81.0 °F 76.6 °F 29.88 in SE 7.0 mph 12.0 mph 87 % 0.00 in
23:24 81.0 °F 77.0 °F 29.89 in ENE 3.0 mph 12.0 mph 88 % 0.00 in
23:29 81.0 °F 77.0 °F 29.89 in South 5.0 mph 12.0 mph 88 % 0.00 in
23:34 81.0 °F 77.0 °F 29.89 in SSE 5.0 mph 12.0 mph 88 % 0.00 in
23:39 81.0 °F 77.0 °F 29.89 in SSW 7.0 mph 12.0 mph 88 % 0.00 in
23:44 80.8 °F 76.8 °F 29.88 in ESE 7.0 mph 12.0 mph 88 % 0.00 in
23:49 80.8 °F 76.8 °F 29.88 in SE 11.0 mph 12.0 mph 88 % 0.00 in
23:54 80.8 °F 76.8 °F 29.88 in ESE 5.0 mph 11.0 mph 88 % 0.00 in
23:59 80.8 °F 76.8 °F 29.88 in South 6.0 mph 11.0 mph 88 % 0.00 in
Spring, Texas: Villages of Bridgestone
Compliments of Weather Underground - 2.75 mb

Script developed by  Jim McMurry - jmcmurry@mwt.net Adapted for the template by  Wim van der Kuil - Leuven-Template.eu

You find our weather info also at:

UK Metoffice

WeatherCloud

Weather Underground

Mid-South Weather Network

AWEKAS

Citizen Weather Observer Program (CWOP)

HAMweather, WeatherForYou, PWS Weather

Equipment we use:

Weather-station
Davis Vantage Vue

Weather-program
Meteohub

Weather-server
Debian 7.9 x86 (Guest)

Provider
DreamHost

Davis Vantage Vue

Meteohub

Debian 7.9 x86 (Guest)

DreamHost